Temperature
22 22 22 22 21 21 20 20 19 19 19 19 18 18 18 18 18 18 17 17 17 17 17 17 17 17 17 17 17 17 17 17 17 17 17 17 17 17 17 17 17 17 17
22 22 22 22 21 21 20 20 20 19 19 19 19 18 18 18 18 17 17 17 17 17 17 17 17 17 17 17 17 17 17 17 17 17 17 17 17 17 17 17 17 17 17
23 22 22 22 21 21 21 20 20 20 19 19 18 18 18 18 17 17 17 17 17 17 17 17 17 17 17 17 17 17 17 17 17 17 17 17 17 17 17 17 17 17 17
23 22 22 22 22 21 21 20 20 20 19 19 18 18 18 18 18 17 17 17 17 17 17 17 17 17 17 17 17 17 17 17 17 17 17 17 17 17 17 17 17 17 17
23 23 22 22 21 21 21 20 20 19 19 19 18 18 18 18 17 17 17 17 17 17 17 17 17 17 17 17 17 17 17 17 17 17 17 17 17 17 17 16 17 17 17
23 23 22 22 21 21 21 20 20 19 19 18 18 18 18 18 17 17 17 17 17 17 17 17 17 17 17 17 17 17 17 17 17 17 17 17 17 17 16 16 16 17 17
23 23 22 22 22 21 21 20 20 20 19 18 18 18 18 18 17 17 17 17 17 17 17 17 17 17 17 17 17 17 17 16 16 16 16 16 16 16 16 16 16 16 16
23 23 23 22 22 22 21 20 20 20 19 19 18 18 18 18 17 17 17 17 17 17 17 17 17 17 17 17 17 17 16 16 16 16 16 16 16 16 16 16 16 16 16
23 23 23 23 22 22 21 21 20 20 19 19 18 18 18 18 17 17 17 17 17 17 17 17 17 17 17 17 17 16 16 16 16 16 16 16 16 16 16 16 16 16 15
23 23 23 23 22 22 21 21 20 20 19 19 19 18 18 18 17 17 17 17 17 17 17 16 17 17 16 16 16 16 16 16 16 16 16 16 16 16 16 16 16 15 15
24 23 23 23 22 22 21 21 20 20 20 19 19 18 18 18 17 17 17 17 17 17 16 16 16 16 16 16 16 16 16 16 16 16 15 15 15 15 15 15 15 15 15
24 23 23 22 22 22 21 21 20 20 20 19 19 18 18 18 17 17 17 17 17 17 16 16 16 16 16 16 16 16 16 16 15 15 15 15 15 15 15 15 15 15 15
23 23 23 22 22 22 21 21 21 20 20 19 19 18 18 18 18 17 17 17 17 16 16 16 16 16 16 15 15 15 15 15 15 15 15 15 15 15 15 15 14 14 14
23 23 23 22 22 22 21 21 21 20 20 19 19 18 18 18 17 17 17 17 16 16 16 16 16 16 15 15 15 15 15 15 15 14 14 14 14 14 14 14 14 14 14
23 23 23 23 22 22 21 21 20 20 19 19 19 18 18 18 17 17 17 16 16 16 16 16 16 15 15 15 15 15 14 14 14 14 14 14 14 14 13 13 13 13 13
23 23 23 23 22 22 22 21 20 20 19 19 18 18 18 17 17 17 16 16 16 16 15 15 15 15 15 14 14 14 14 14 14 14 13 13 13 13 13 13 13 13 12
23 23 23 23 22 22 21 21 20 20 19 19 18 18 18 17 17 16 16 16 16 15 15 15 15 14 14 14 14 14 14 13 13 13 13 13 12 12 12 12 12 12 12
23 23 23 22 22 21 21 20 20 19 19 18 18 18 17 17 16 16 16 15 15 15 15 14 14 14 13 13 13 13 13 13 12 12 12 12 12 12 12 12 12 12 11
23 23 23 22 22 21 21 20 19 19 18 18 18 17 17 16 16 16 15 15 15 14 14 14 13 13 13 13 13 13 13 12 12 12 11 11 11 11 11 11 11 11 10
22 22 22 21 21 20 20 19 19 18 18 18 17 17 16 16 16 15 15 15 14 14 14 13 13 13 12 12 12 12 12 12 11 11 11 11 11 10 10 10 10 10 10
21 21 21 21 20 20 19 19 18 18 18 17 17 16 16 16 15 15 15 14 14 13 13 13 12 12 12 12 12 11 11 11 11 11 10 10 10 10 10 10 9 9 9
20 20 20 20 19 19 19 19 18 18 17 17 16 16 15 15 15 14 14 14 13 13 12 12 12 11 11 11 11 11 11 11 10 10 10 9 9 9 9 9 9 9 8
20 19 19 19 19 18 18 18 18 17 17 16 16 15 15 14 14 14 13 13 13 12 12 12 11 11 11 10 10 10 10 10 10 9 9 9 9 9 9 8 8 8 8
19 19 19 18 18 18 17 17 17 16 16 16 15 15 15 14 14 13 13 12 12 12 12 11 11 11 10 10 10 9 9 9 9 9 9 8 8 8 8 8 8 8 8
18 18 18 18 17 17 16 16 16 16 15 15 15 14 14 14 13 13 12 12 12 11 11 11 11 10 10 9 9 9 9 9 9 8 8 8 8 8 8 8 8 7 7
17 17 17 17 17 16 16 16 15 15 15 15 14 14 13 13 12 12 12 11 11 11 10 10 10 10 9 9 9 9 8 8 8 8 8 8 8 7 7 7 7 7 7
Wind_Speed
5 6 6 7 6 6 7 7 7 5 5 3 3 2 2 2 1 2 4 5 5 5 5 3 3 3 3 3 3 2 2 1 2 1 1 1 1 2 3 4 5 6 9
5 6 6 6 7 7 6 7 6 6 6 4 3 2 2 2 2 2 2 5 5 5 5 4 3 3 3 3 3 3 2 1 2 2 1 1 2 2 2 3 4 5 5
8 7 7 7 6 7 7 7 6 6 5 4 3 2 1 1 0 1 1 3 5 5 5 4 4 4 4 4 4 4 4 3 1 2 3 2 2 2 2 1 2 3 3
7 7 7 7 7 7 6 5 5 5 4 4 4 4 3 3 3 2 2 3 4 4 5 5 5 4 4 4 4 4 3 4 2 1 1 2 3 2 1 2 1 2 3
9 9 8 7 6 6 6 5 5 4 4 4 4 4 2 2 1 1 2 2 2 3 4 5 4 4 3 4 4 3 4 4 4 3 2 2 1 2 2 2 2 2 2
9 7 7 7 6 5 5 5 5 4 3 3 3 4 4 3 2 2 2 2 2 2 3 3 3 3 3 4 4 3 4 3 3 3 3 3 2 3 3 3 3 2 2
9 9 9 9 8 7 6 5 5 3 3 3 3 3 3 3 3 2 2 2 2 2 2 2 2 2 3 3 3 3 3 3 3 4 3 3 3 2 3 3 2 2 2
9 9 9 9 9 8 8 6 5 4 3 3 2 2 2 2 2 2 1 2 2 2 2 1 1 2 2 3 2 2 2 2 3 3 2 2 3 3 3 3 3 2 1
9 9 9 9 9 9 8 8 7 4 3 3 2 1 1 2 1 1 1 1 1 1 0 0 0 0 1 2 2 2 2 2 2 2 2 2 2 2 3 3 3 3 2
7 8 9 9 8 7 7 7 6 5 4 3 2 2 1 1 1 1 1 0 1 1 2 2 1 1 1 1 1 1 1 2 2 1 2 2 2 1 2 2 2 3 3
9 9 8 8 8 7 7 7 6 4 4 3 3 2 2 2 2 2 1 1 1 1 2 1 2 2 2 1 1 1 0 1 1 1 1 1 1 1 1 1 1 1 2
8 9 9 8 7 7 6 6 6 5 4 4 4 3 3 3 2 2 1 2 2 2 2 2 3 2 2 2 2 1 1 1 0 0 1 1 0 0 0 1 1 1 2
7 7 8 8 8 7 7 6 6 6 5 5 5 4 3 3 2 2 2 3 3 3 3 3 3 2 2 2 2 1 2 2 1 1 1 1 2 2 1 1 2 1 1
7 7 7 7 7 7 7 7 6 6 6 6 5 4 3 3 3 3 3 3 3 4 4 4 4 3 3 3 2 3 3 3 3 3 3 3 3 3 2 2 2 2 2
7 8 8 7 7 7 6 6 6 6 6 6 5 4 3 3 4 4 4 4 4 4 4 4 5 5 4 4 4 4 4 5 5 5 5 6 7 7 5 3 3 3 3
8 8 7 8 7 7 7 6 6 6 6 6 5 4 4 4 4 4 4 4 5 4 5 5 5 6 5 7 8 6 5 5 6 6 6 7 8 10 11 11 10 7 4
7 7 7 7 7 6 6 6 6 7 7 6 5 5 5 5 4 4 5 5 4 5 6 6 6 6 7 9 9 9 6 6 6 6 6 6 7 7 7 10 12 11 11
6 7 6 6 6 6 6 5 6 7 7 6 5 5 6 6 5 5 6 5 5 5 5 6 6 6 7 9 9 9 8 8 7 6 6 6 5 6 6 7 8 8 7
5 5 6 6 6 7 7 7 6 6 6 6 5 5 6 7 6 6 5 5 5 6 5 5 6 6 6 8 8 8 6 7 7 7 7 6 5 6 7 7 7 6 6
4 5 6 6 7 6 8 9 7 6 5 4 5 5 6 7 7 6 6 5 6 6 6 7 6 6 6 8 8 7 5 6 5 5 6 8 7 7 7 5 5 6 4
6 7 7 7 6 7 8 9 7 5 5 6 6 6 6 7 7 7 5 6 7 7 7 7 6 6 6 7 8 7 5 5 5 5 5 5 9 9 9 7 5 4 4
8 7 7 6 6 7 8 8 6 5 6 7 7 6 6 6 7 7 6 6 7 7 6 6 5 5 5 7 7 9 7 6 5 4 3 5 8 9 9 7 7 7 6
7 7 8 8 6 5 7 8 6 7 7 7 7 7 6 6 6 7 7 5 5 5 4 4 4 3 4 5 8 8 8 8 5 4 6 8 10 9 8 10 10 7 5
6 6 8 7 5 4 5 6 7 8 8 8 7 7 7 7 6 5 5 5 4 4 4 4 3 3 3 3 3 4 5 7 6 5 7 10 11 9 8 7 7 6 5
4 5 6 6 5 5 5 6 7 8 9 8 7 6 6 7 6 5 4 4 3 3 4 3 3 3 2 1 2 3 3 3 4 5 5 5 5 6 6 5 5 5 5
4 5 5 5 5 5 5 5 6 8 9 8 7 6 5 6 6 6 6 8 6 7 6 5 4 2 2 4 6 6 6 6 7 6 5 4 4 4 4 4 4 4 4
Wind_Direction
197 175 172 168 163 163 166 173 176 171 158 154 166 173 200 213 203 208 213 214 215 206 196 205 198 185 192 209 196 173 164 166 152 112 14 335 289 244 239 234 234 236 236
178 173 166 165 170 174 175 175 176 178 180 176 166 166 164 185 202 223 221 223 219 213 211 209 208 198 198 205 197 176 161 172 161 150 117 344 339 326 260 234 231 239 238
187 179 175 174 170 178 184 186 183 184 185 171 141 116 93 72 162 234 243 239 226 218 214 213 211 204 196 207 205 189 178 185 186 170 156 164 237 296 321 278 246 238 229
180 179 182 182 183 187 179 172 169 174 178 166 165 173 182 195 216 221 236 254 234 224 224 222 214 208 201 206 209 195 186 173 189 191 198 185 172 188 303 325 292 260 247
180 182 183 184 176 164 159 156 151 166 170 169 175 177 193 201 212 218 236 256 264 248 237 232 221 212 207 209 206 192 187 181 183 185 180 175 177 188 195 269 305 311 269
176 174 164 151 149 143 143 146 150 166 170 170 173 180 192 193 208 246 252 263 270 263 248 235 227 220 218 215 210 202 192 191 187 192 188 181 183 192 190 225 260 285 294
167 166 161 159 157 154 155 154 153 172 169 168 181 190 195 188 208 239 241 251 273 275 263 238 225 222 221 218 206 196 203 198 195 201 207 208 215 189 181 197 236 259 290
167 170 169 165 165 164 161 158 163 184 174 169 190 192 188 195 218 230 232 238 251 262 268 251 227 223 215 207 192 193 204 199 205 210 205 218 229 209 199 195 194 238 282
173 170 165 165 167 168 167 168 169 171 168 170 173 175 175 175 201 210 203 245 265 267 267 288 317 217 183 184 178 187 203 190 209 221 218 228 240 227 228 217 202 197 238
167 162 164 166 165 167 163 161 162 169 168 159 168 173 155 144 138 115 106 50 12 39 72 64 52 50 69 126 152 179 201 190 222 215 212 232 247 241 237 223 217 208 206
170 166 166 163 159 159 158 157 158 158 151 149 141 121 113 107 98 89 82 83 64 76 81 77 66 61 51 56 80 67 122 167 221 230 207 248 259 233 243 211 191 197 193
166 160 156 152 153 159 160 159 161 158 154 147 134 125 112 104 98 85 78 82 83 80 84 83 73 64 57 59 76 59 50 91 111 190 116 298 303 360 10 131 142 171 186
158 153 151 158 165 164 159 161 159 156 149 139 133 128 123 118 109 90 85 79 76 72 71 77 73 60 51 52 62 82 77 73 60 53 70 44 70 59 51 82 98 115 133
160 159 161 166 166 163 162 162 159 153 146 140 139 139 140 136 122 101 87 81 78 71 66 65 62 55 54 53 61 76 82 73 62 59 63 66 74 73 62 66 68 86 93
167 171 171 167 163 160 161 159 157 153 148 145 147 151 138 122 109 98 90 83 78 73 72 69 58 52 54 53 65 71 76 75 71 61 59 67 73 73 72 75 72 85 93
180 177 172 166 166 168 165 159 157 154 146 146 149 138 125 114 107 101 90 84 80 78 76 70 64 57 58 58 62 71 73 75 76 69 61 62 61 69 71 72 71 74 85
181 177 178 172 168 168 166 166 164 152 147 147 143 135 128 120 114 108 94 84 78 79 75 69 68 66 58 58 63 67 77 78 72 68 65 64 58 61 69 67 66 62 61
181 178 173 164 156 152 150 146 145 145 143 141 137 132 128 120 107 100 94 85 78 79 75 70 72 72 61 61 65 70 74 76 69 62 64 70 59 61 74 76 70 61 51
173 174 168 158 148 146 143 135 132 133 135 139 138 135 129 123 115 107 102 99 94 83 75 71 67 67 55 57 67 77 81 76 65 58 58 66 64 58 70 81 79 65 48
125 134 134 127 131 134 131 128 128 129 132 133 131 126 120 121 120 116 107 99 99 94 86 74 64 65 60 55 66 75 88 84 73 59 53 58 63 59 62 82 86 75 46
108 114 122 124 128 129 130 132 132 140 135 124 119 116 118 119 119 112 107 108 103 95 86 79 64 57 55 56 61 69 85 95 88 74 59 53 61 66 66 72 78 85 74
106 114 121 116 115 126 133 134 142 139 127 125 123 118 114 117 119 115 110 110 109 101 93 85 69 52 45 52 60 67 77 90 92 83 70 64 68 68 66 69 68 69 67
113 115 119 115 111 124 138 144 144 132 128 123 121 116 109 101 109 118 121 114 110 111 107 99 87 65 50 46 55 65 72 80 84 85 84 79 74 69 63 59 59 60 63
109 113 116 119 121 121 119 127 131 132 130 129 127 123 119 110 103 105 114 118 119 120 118 115 107 88 63 52 54 61 71 74 78 77 73 71 68 65 60 54 51 54 59
100 113 123 129 132 124 117 126 134 135 134 134 132 128 125 125 117 103 90 110 109 136 141 140 137 130 114 84 101 102 88 89 91 89 72 64 60 59 56 52 47 46 51
117 117 119 125 128 127 125 128 137 140 139 140 140 139 135 130 127 119 92 61 77 91 106 119 127 107 117 121 105 94 92 95 100 91 83 76 73 70 65 62 52 45 44
Height
1543 1546 1548 1550 1552 1553 1555 1556 1558 1559 1560 1561 1562 1563 1564 1565 1566 1567 1567 1568 1568 1569 1570 1571 1571 1572 1573 1574 1574 1575 1576 1577 1577 1578 1578 1578 1578 1578 1579 1579 1580 1580 1580
1542 1544 1546 1548 1550 1552 1554 1555 1557 1558 1559 1560 1561 1562 1563 1564 1565 1565 1566 1566 1567 1567 1568 1569 1569 1570 1571 1572 1573 1573 1574 1575 1576 1576 1576 1576 1577 1576 1577 1577 1578 1578 1578
1540 1543 1545 1547 1549 1551 1552 1554 1556 1557 1558 1559 1559 1560 1561 1561 1562 1563 1564 1564 1565 1565 1566 1566 1567 1568 1569 1570 1571 1572 1572 1573 1574 1575 1576 1575 1575 1575 1575 1575 1576 1576 1576
1538 1541 1543 1545 1547 1550 1552 1553 1555 1556 1557 1558 1559 1559 1559 1560 1561 1561 1562 1563 1563 1563 1563 1564 1565 1566 1567 1567 1568 1569 1570 1571 1572 1573 1573 1574 1574 1574 1573 1574 1574 1574 1574
1535 1538 1541 1544 1547 1550 1551 1553 1554 1555 1556 1557 1557 1558 1558 1558 1559 1560 1560 1560 1561 1561 1561 1562 1562 1563 1564 1565 1566 1567 1568 1568 1569 1570 1571 1571 1572 1572 1572 1571 1572 1572 1572
1533 1537 1540 1543 1546 1549 1550 1551 1553 1554 1555 1556 1556 1556 1557 1557 1558 1558 1558 1559 1559 1559 1559 1560 1560 1561 1562 1563 1564 1564 1565 1566 1567 1567 1568 1569 1569 1569 1569 1569 1569 1569 1569
1530 1534 1538 1541 1544 1547 1549 1550 1552 1553 1554 1554 1555 1555 1556 1556 1556 1557 1557 1557 1557 1557 1557 1557 1558 1559 1560 1561 1561 1562 1563 1563 1564 1565 1565 1566 1566 1567 1567 1567 1566 1566 1566
1528 1532 1536 1539 1542 1545 1547 1549 1551 1552 1553 1553 1554 1554 1554 1555 1555 1555 1555 1556 1555 1555 1556 1556 1556 1557 1557 1558 1559 1559 1560 1561 1561 1562 1562 1563 1563 1564 1564 1564 1564 1563 1563
1527 1530 1534 1538 1541 1543 1545 1548 1549 1551 1552 1552 1553 1553 1554 1554 1554 1554 1554 1554 1554 1554 1554 1554 1555 1555 1555 1556 1556 1557 1557 1558 1558 1559 1560 1560 1560 1561 1561 1562 1562 1562 1561
1526 1529 1533 1536 1540 1543 1545 1547 1549 1551 1552 1552 1553 1553 1553 1553 1553 1553 1553 1553 1553 1553 1553 1553 1553 1553 1554 1554 1554 1555 1555 1555 1556 1556 1557 1557 1558 1558 1558 1558 1559 1559 1559
1525 1528 1532 1536 1539 1542 1544 1546 1548 1550 1551 1551 1552 1552 1552 1553 1553 1553 1553 1552 1552 1552 1552 1552 1552 1552 1552 1552 1552 1552 1552 1553 1553 1554 1554 1554 1555 1555 1555 1555 1555 1555 1555
1524 1528 1531 1535 1538 1541 1543 1545 1547 1548 1550 1551 1551 1552 1552 1552 1552 1552 1552 1552 1552 1552 1552 1551 1551 1551 1551 1551 1551 1551 1551 1551 1551 1551 1552 1552 1552 1552 1552 1552 1552 1552 1552
1524 1527 1531 1534 1537 1540 1542 1544 1546 1547 1549 1550 1551 1551 1552 1552 1552 1552 1552 1552 1552 1551 1551 1551 1551 1550 1550 1550 1549 1549 1549 1549 1549 1550 1550 1550 1550 1549 1549 1549 1548 1549 1549
1524 1527 1530 1533 1536 1538 1541 1543 1545 1546 1548 1549 1550 1550 1551 1551 1552 1552 1552 1552 1552 1551 1551 1550 1550 1550 1550 1549 1549 1549 1548 1548 1548 1548 1548 1548 1548 1547 1547 1546 1546 1546 1547
1523 1525 1528 1531 1534 1537 1539 1542 1544 1546 1547 1548 1549 1550 1550 1551 1552 1552 1552 1552 1551 1551 1551 1551 1550 1550 1549 1549 1549 1548 1548 1547 1547 1547 1547 1547 1547 1546 1545 1545 1545 1545 1544
1521 1524 1527 1530 1533 1536 1538 1540 1542 1544 1546 1548 1549 1549 1550 1550 1551 1551 1551 1551 1551 1551 1551 1550 1550 1550 1549 1549 1549 1548 1547 1547 1546 1546 1546 1546 1546 1545 1545 1544 1544 1544 1543
1519 1523 1526 1529 1532 1535 1537 1540 1541 1543 1545 1547 1548 1548 1549 1550 1550 1551 1551 1551 1551 1551 1550 1550 1550 1550 1549 1549 1548 1548 1547 1546 1546 1546 1545 1545 1545 1545 1545 1544 1543 1543 1543
1518 1522 1525 1528 1531 1534 1536 1538 1540 1542 1544 1545 1547 1548 1548 1549 1550 1550 1550 1551 1551 1551 1550 1550 1550 1550 1549 1549 1549 1548 1547 1546 1546 1546 1546 1546 1546 1545 1545 1544 1543 1543 1542
1517 1521 1524 1527 1530 1532 1535 1537 1539 1541 1543 1544 1545 1547 1547 1548 1549 1549 1550 1550 1551 1551 1551 1551 1551 1550 1550 1550 1549 1549 1548 1547 1547 1547 1547 1547 1546 1546 1546 1545 1544 1543 1543
1517 1520 1523 1526 1529 1532 1534 1536 1539 1540 1541 1543 1544 1546 1546 1547 1548 1549 1550 1550 1551 1551 1551 1551 1551 1551 1551 1550 1550 1549 1549 1548 1548 1548 1548 1548 1547 1547 1547 1546 1545 1544 1545
1516 1520 1523 1525 1528 1531 1533 1535 1537 1539 1541 1542 1543 1545 1546 1547 1548 1549 1550 1550 1550 1551 1551 1551 1551 1551 1551 1551 1550 1550 1549 1549 1549 1549 1548 1549 1549 1548 1548 1547 1546 1546 1546
1516 1519 1522 1525 1528 1530 1533 1534 1536 1538 1540 1541 1543 1545 1545 1546 1548 1549 1549 1550 1550 1551 1551 1552 1552 1552 1551 1551 1551 1551 1550 1550 1550 1550 1549 1550 1550 1549 1549 1548 1548 1548 1547
1517 1520 1522 1525 1527 1529 1532 1533 1535 1537 1539 1541 1542 1543 1545 1546 1547 1548 1549 1550 1550 1551 1551 1551 1552 1552 1552 1552 1552 1552 1552 1551 1551 1551 1551 1551 1551 1550 1550 1550 1549 1549 1549
1518 1520 1523 1524 1527 1529 1530 1532 1534 1536 1538 1540 1541 1543 1544 1545 1547 1548 1549 1549 1549 1550 1551 1551 1552 1552 1552 1552 1552 1552 1552 1552 1552 1552 1552 1552 1552 1552 1552 1551 1551 1551 1550
1519 1521 1523 1524 1526 1528 1530 1532 1533 1535 1537 1539 1540 1542 1543 1544 1546 1547 1548 1548 1549 1550 1551 1552 1552 1552 1552 1553 1553 1553 1553 1553 1553 1553 1553 1553 1553 1553 1553 1553 1552 1552 1552
1519 1521 1522 1524 1526 1528 1529 1531 1533 1534 1536 1537 1539 1540 1542 1543 1544 1546 1547 1548 1549 1550 1551 1551 1552 1552 1553 1553 1553 1554 1554 1554 1555 1555 1554 1554 1554 1554 1554 1554 1554 1554 1553